Terug naar catalogus

STARLINK-2476

ActiefCommunicatieVLEO
NORAD 48134·PAYLOAD·🇺🇸 United States

Gelanceerd Apr 7, 2021 vanaf Cape Canaveral Space Force Station

Loading…

Volgende Passages (komende 24 uur)

TLE

VersSource: CelesTrak SupGP

Epoch: Sep 15, 2026, 02:21 UTC

1 48134C 21027AU  26258.09840278  .00032615  00000+0  10491-2 0  2584
2 48134  53.1606   3.7824 0001012  72.9748 225.3330 15.31677371    18

Volg STARLINK-2476 in realtime met AllMySat

Download on the App Store